Simultaneous Nadir Overpasses (SNOs) Predictions

Prediction of SNOs between GOES-15 and METOP-A Satellite Orbit:

Table of predicted SNOs for the next 14.0 days since TLE Epoch: 10/31/2014
Index Date Time (GOES-15) GOES-15 Lat,Lon METOP-A Lat,Lon Distance(km) Time Diff (sec)
1 10/31/2014 18:46:33 -0.29,-135.04 0.62,-139.23 476.71 80
2 11/01/2014 18:28:34 -0.29,-135.01 -0.48,-134.24 88.49 80
3 11/03/2014 06:47:35 0.28,-134.91 -0.62,-138.82 447.23 80
4 11/04/2014 06:24:18 0.29,-134.87 0.54,-133.84 117.39 80
5 11/05/2014 18:43:10 -0.28,-134.86 0.51,-138.40 402.97 80
6 11/06/2014 18:25:12 -0.29,-134.83 -0.59,-133.41 161.69 80
7 11/08/2014 06:44:13 0.27,-134.72 -0.49,-138.00 374.52 80
8 11/09/2014 06:20:55 0.28,-134.67 0.62,-133.01 189.54 80
9 11/10/2014 18:39:48 -0.26,-134.66 0.36,-137.58 331.90 80
10 11/11/2014 18:21:48 -0.27,-134.62 -0.70,-132.57 232.29 80
11 11/13/2014 06:40:50 0.25,-134.50 -0.37,-137.16 304.22 80
12 11/14/2014 06:17:31 0.26,-134.45 0.75,-132.17 259.35 80




NCC Satellite Simultaneous Nadir Overpasses (SNOs) Prediction Service
